User: anonymous   Login
Location: Newark
(0.5333°S, 166.9167°E)
Time: 05:29:09
(UTC+00:00)
Language:

DOVE 4 - Orbit

View from above orbital plane
View from above orbital plane
View from above satellite
View from above satellite

Ground track
Ground track

The orbit data is extracted from the following two-line orbital elements,

1 39430U 13066Q   19140.82341302  .00000277  00000-0  59306-4 0  9996
2 39430  97.7441  99.2803 0151315 345.8859  13.8138 14.59241463292390
Epoch (UTC): 20 May 2019 19:45:42
Eccentricity: 0.0151315
inclination: 97.7441°
perigee height: 588 km
apogee height: 802 km
right ascension of ascending node: 99.2803°
argument of perigee: 345.8859°
revolutions per day: 14.59241463
mean anomaly at epoch: 13.8138°
orbit number at epoch: 29239

The dashed part of the orbit path shows where the satellite is in the earth's shadow,  

DLR